Regional Weather Roundup
Issued by NWS Austin/San Antonio, TX

Home | Current Version | Previous Version | Text Only | Print | Product List | Glossary On
Versions: 1 2 3 4 5 6 7 8 9 10 11 12 13 14 15 16 17 18 19 20 21 22 23 24 25 26 27 28 29 30 31 32 33 34 35 36 37 38 39 40 41 42 43 44 45 46 47 48 49 50
039
ASUS44 KEWX 281002
RWREWX
SOUTH TEXAS REGIONAL WEATHER ROUNDUP
NATIONAL WEATHER SERVICE AUSTIN/SAN ANTONIO TX
500 AM CDT WED JUN 28 2017

NOTE: "FAIR" INDICATED FEW OR NO CLOUDS BELOW 12,000 FEET WITH NO
SIGNIFICANT WEATHER AND/OR OBSTRUCTIONS TO VISIBILITY.

* - THESE STATIONS ARE NOT NWS OR FAA STATIONS...AND ARE NOT SUBJECT
    TO NWS AND FAA QUALITY CONTROL.

TXZ171-172-183>190-281100-
TEXAS HILL COUNTRY AND EDWARDS PLATEAU

CITY           SKY/WX    TMP DP  RH WIND       PRES   REMARKS
JUNCTION       PTCLDY    68  65  90 E6        29.97F
*LLANO         PTCLDY    70  68  94 CALM      30.00S
BURNET         CLOUDY    71  68  90 CALM      29.99S
*HORSESHOE BAY CLEAR     67  66  97 MISG      29.96F
*KERRVILLE     MOCLDY    69  67  95 CALM      29.97F
*FREDERICKSBRG CLOUDY    69  67  91 CALM      29.97F
*ROCKSPRINGS   CLOUDY    68  68 100 S7        30.01S
*BOERNE STAGE  CLOUDY    68  68 100 SE3       29.97S
*CASTROVILLE   CLEAR     68  67  99 CALM      29.94F
HONDO          PTCLDY    69  68  96 NE6       29.93S
*UVALDE        CLOUDY    69  68  97 CALM      29.94S
DEL RIO        CLEAR     71  68  90 E6        29.91F
LAUGHLIN AFB   NOT AVBL
CARRIZO SPRGS  MOCLDY    70  70 100 CALM      29.90S
*EAGLE PASS      N/A    N/A N/A N/A MISG        N/A
$$

TXZ173-191>194-202-209-217>225-228-281100-
CENTRAL AND SOUTH CENTRAL TEXAS

CITY           SKY/WX    TMP DP  RH WIND       PRES   REMARKS
GEORGETOWN     CLEAR     70  64  83 CALM      29.95F
AUSTIN/BERGSTM FOG       73  72  96 CALM      29.94S VSB 1/8
AUSTIN/MABRY   MOCLDY    73  71  93 CALM      29.95F
*AUSTIN/EXEC     N/A     70  70 100 CALM      29.95F FOG
*LAGO VISTA    MOCLDY    71  70  96 CALM      29.97S FOG
SAN MARCOS     CLOUDY    70  70 100 CALM      29.95S
NEW BRAUNFELS  PTCLDY    71  69  93 CALM      29.92F
RANDOLPH AFB   MOCLDY    71  71 100 NE3       29.93S
PT SAN ANTONIO PTCLDY    70  68  94 N3        29.91S
SAN ANTONIO    MOCLDY    72  69  90 NE6       29.94S
STINSON FIELD  PTCLDY    73  69  87 NE3       29.91S
*LA GRANGE     CLOUDY    74  73  98 CALM      29.91F
*GIDDINGS      MOCLDY    71  69  96 CALM      29.94F
*GONZALES      CLEAR     73  73 100 NE3       29.92S
$$

TXZ163>164-176>182-195>201-210>213-226-227-235-281100-
SOUTHEAST TEXAS

CITY           SKY/WX    TMP DP  RH WIND       PRES   REMARKS
COLLEGE STN    CLEAR     70  70 100 CALM      29.94F
*BRYAN         CLEAR     69  69 100 N3        29.95F
*CALDWELL      NOT AVBL
*CROCKETT      CLEAR     70  68  94 CALM      29.99F
*BRENHAM       CLEAR     73  72  97 CALM      29.94S
HUNTSVILLE     MOCLDY    71  68  90 CALM      29.96R FOG
CONROE         PTCLDY    71  70  96 E5        29.94F
HOUSTON BUSH   PTCLDY    74  72  93 NE8       29.92F
HOUSTON HOBBY  MOCLDY    76  72  87 E6        29.90F
*HOUSTON SW AP PTCLDY    73  71  93 CALM      29.91S
PEARLAND       NOT AVBL
HOUSTON HOOKS  CLEAR     74  72  93 NE5       29.93S
ELLINGTON FLD  MOCLDY    75  73  94 NE6       29.92F
SUGAR LAND     CLEAR     77  72  84 E6        29.91S
*HOUSTON EXEC  MOCLDY    73  73 100 CALM      29.93S
*CLEVELAND MUN CLOUDY    72  71  96 CALM      29.95F FOG
*WHARTON       CLEAR     71  69  93 CALM      29.91S
*COLUMBUS      FAIR      73  71  94 CALM      29.93S
*EAGLE LAKE    SUNNY     73  73 100 N6        29.92S
$$

TXZ214>216-236>238-281100-
THE UPPER TEXAS COAST

CITY           SKY/WX    TMP DP  RH WIND       PRES   REMARKS
*ORANGE        CLEAR     73  73  99 CALM      29.95S
PORT ARTHUR    CLEAR    N/A N/A N/A MISG        N/A
GALVESTON      MOCLDY    77  76  96 E8        29.90F
ANGLETON       PTCLDY    74  73  97 NE6       29.88F
*BAY CITY      CLEAR     74  74  98 NE5       29.88F
PALACIOS       PTCLDY    71  71 100 N7        29.87F
$$

TXZ229>234-239>247-281100-
TEXAS COASTAL BEND AND RIO GRANDE PLAINS

CITY           SKY/WX    TMP DP  RH WIND       PRES   REMARKS
VICTORIA       MOCLDY    74  72  93 NE6       29.89F
*BEEVILLE      MOCLDY   N/A N/A N/A N5        29.89S
ROCKPORT       MOCLDY    77  74  90 N5        29.85F
*PORT ARANSAS  MOCLDY    79  73  84 NE3       29.85S
*PORT LAVACA   RAIN      73  73 100 CALM      29.88S
*INGLESIDE     CLEAR     76  74  94 MISG      29.85S
CORPUS CHRISTI PTCLDY    78  75  90 N5        29.86S
CORPUS NAS     CLEAR     79  75  87 CALM      29.85S
*ROBSTOWN      MOCLDY    75  32  20 N6        29.87R
ALICE          CLEAR     73  72  96 N6        29.86F
KINGSVILLE NAS CLEAR     74  74 100 NW5       29.86S
COTULLA        CLOUDY    72  70  93 NE6       29.90S
*FAITH RANCH   CLEAR     72  72 100 E3        29.90F
LAREDO         PTCLDY    74  70  87 E6        29.89F
$$

TXZ248>255-281100-
DEEP SOUTH TEXAS

CITY           SKY/WX    TMP DP  RH WIND       PRES   REMARKS
BROWNSVILLE    MOCLDY    76  76 100 CALM      29.84F
PORT ISABEL    CLOUDY    78  76  93 NW5       29.84S
*SOUTH PADRE   NOT AVBL
HARLINGEN      PTCLDY    75  75 100 N3        29.85R
*HEBBRONVILLE  PTCLDY    70  69  95 CALM      29.89F
MCALLEN        PTCLDY    81  74  79 NE3       29.86S
*WESLACO       MOCLDY    76  74  93 CALM      29.85S
FALFURRIAS     PTCLDY    74  73  94 CALM      29.86F
EDINBURG       CLOUDY    78  74  88 CALM      29.86S
*ZAPATA        CLOUDY    77  71  80 E3        29.87F
$$

TXZ213>215-236>238-242>244-246-247-251-254-255-281100-
CMAN STATIONS

STATION/POSITION TIME  TEMP    WIND        PRES    WAVE
                       AIR SEA DIR/SP/G            HT/PER
                 (UTC) (F)     (DEG/KT/KT) (MB)    (FT/S)
SABINE PASS      0930   77 84   60/  5/  8 1014.6
SEA RIM ST PARK  0900   80     120/ 11/ 15 1013.7
NORTH JETTY/GLS  0930      83  110/ 13/ 15 1012.2
EAGLE POINT      0930   80 82  120/ 11/ 14 1012.7
MORGANS POINT    0930   77 83  100/  7/  9 1012.5
MISSION/ARANSAS  0900          360/  8       N/A
PORT O`CONNOR    0930   80      80/  7/  9 1011.0
PORT ARANSAS     0900   81 84   80/  4/  5 1010.8
MALAQUITE BEACH  0930   81 85  100/  5/  6 1010.1
PORT ISABEL      0924   79 86              1010.6
$$




USA.gov is the U.S. government's official web portal to all federal, state and local government web resources and services.